CAPE
0 11 1 0 0 0 0 0 0 29 0 0 8 26 0 19 72 362 501 345 117 155 190 510 499 821 816 1798 2221 2267 2339 2528
0 0 0 0 0 0 0 0 0 0 13 0 0 3 0 0 182 306 471 313 71 125 166 253 354 482 727 1438 1938 1987 2105 2344
0 0 0 10 0 0 0 0 0 0 0 46 13 21 23 0 36 460 461 331 102 111 156 252 310 369 618 969 1628 1869 1831 1977
0 0 0 0 0 0 7 0 0 0 0 10 3 0 19 9 64 113 522 440 134 101 217 266 327 419 570 779 969 1733 1600 1512
0 0 0 0 0 2 0 0 0 0 0 0 118 0 0 20 141 319 457 566 666 250 199 381 423 455 663 810 804 1053 1413 1210
0 0 0 0 0 0 0 0 0 0 0 0 12 11 37 141 193 307 341 435 535 716 801 804 512 720 850 1158 1070 886 1138 1227
0 0 0 0 0 0 0 0 0 0 0 0 52 54 3 115 140 170 219 279 356 407 613 1047 1241 704 628 1081 1049 1043 1036 1084
0 0 0 0 0 0 0 0 0 0 0 0 0 13 0 5 81 51 209 271 349 350 373 848 1169 1814 1455 1371 1582 1235 1112 1509
0 0 0 0 0 0 0 0 0 0 0 0 0 0 0 0 117 61 238 258 367 325 321 588 731 883 1489 2569 2147 2171 2396 1883
0 0 0 0 0 0 0 0 0 0 0 0 0 0 0 0 105 215 310 281 225 217 286 428 466 770 1052 1358 2441 2575 2223 2800
0 0 0 0 0 0 0 0 0 0 0 0 0 0 0 14 128 157 24 130 81 38 98 220 301 825 1187 1500 1627 1916 2669 2924
0 0 0 0 0 0 0 0 0 0 0 5 0 0 176 366 347 94 33 36 23 2 0 23 78 131 493 1427 1695 1874 2481 2218
0 0 0 0 0 1 0 0 0 9 203 219 25 338 353 275 87 5 0 0 5 0 0 7 58 168 418 1408 1780 2529 1951 1778
1 3 0 0 0 1 0 0 0 0 171 183 348 227 81 9 0 0 0 0 1 44 74 74 411 684 1489 2271 2565 3245 2510 1739
8 1 0 0 0 0 0 0 0 89 146 70 117 53 0 0 0 0 0 0 57 96 83 359 618 566 2573 2742 2556 2899 3464 2134
0 0 0 0 0 0 0 0 0 0 5 56 42 5 0 0 0 0 0 0 52 194 333 414 748 813 1512 2012 1927 2488 3580 2983
0 0 0 0 0 0 0 0 0 0 0 43 38 3 0 0 0 0 0 0 321 412 471 659 928 1213 1422 1768 1748 2176 2899 2882
0 0 0 0 0 0 0 0 0 0 0 2 25 6 0 0 0 0 0 143 674 694 740 713 693 1029 1156 1382 1793 2204 1835 1449
0 0 0 0 3 1 0 0 0 0 0 0 15 18 0 0 0 0 0 856 595 348 144 142 214 416 1138 1670 1622 1488 1309 722
CIN
-0 -14 -5 -0 -0 -0 -0 -0 -0 -41 -0 -0 -77 -28 -0 -3 -22 -8 -27 -64 -101 -111 -120 -111 -126 -89 -86 -55 -73 -73 -86 -64
-0 -0 -0 -0 -0 -0 -0 -0 -0 -0 -5 -0 -0 -70 -0 -0 -3 -14 -32 -53 -95 -111 -139 -145 -144 -139 -117 -79 -108 -105 -99 -104
-0 -0 -0 -8 -4 -0 -0 -0 -0 -0 -0 -6 -45 -40 -35 -0 -19 -4 -31 -36 -63 -94 -118 -132 -160 -173 -145 -119 -125 -134 -143 -150
-0 -0 -0 -0 -0 -0 -6 -0 -0 -0 -0 -26 -130 -0 -33 -71 -44 -111 -40 -8 -45 -67 -102 -125 -148 -165 -163 -161 -146 -137 -150 -162
-0 -0 -0 -0 -0 -4 -0 -0 -0 -0 -0 -0 -10 -0 -0 -9 -34 -90 -106 -117 -54 -13 -59 -99 -115 -138 -144 -168 -175 -146 -153 -162
-0 -0 -0 -0 -0 -0 -0 -1 -0 -0 -0 -0 -23 -50 -5 -3 -46 -87 -97 -131 -177 -137 -107 -43 -95 -87 -80 -125 -134 -141 -147 -147
-0 -0 -0 -0 -0 -0 -0 -0 -2 -0 -20 -0 -45 -27 -42 -2 -29 -76 -139 -180 -199 -201 -181 -111 -112 -151 -129 -80 -113 -126 -122 -152
-0 -0 -0 -0 -0 -0 -0 -0 -0 -0 -0 -0 -0 -19 -0 -4 -33 -35 -105 -198 -233 -203 -174 -121 -117 -74 -116 -72 -63 -115 -110 -90
-0 -0 -0 -0 -0 -0 -0 -0 -0 -0 -0 -0 -0 -0 -0 -0 -10 -39 -104 -177 -235 -208 -194 -183 -160 -165 -142 -44 -55 -54 -68 -82
-0 -0 -0 -0 -0 -0 -0 -0 -0 -0 -0 -0 -0 -0 -0 -0 -10 -62 -152 -190 -234 -217 -212 -214 -251 -207 -219 -210 -129 -103 -108 -104
-0 -0 -0 -0 -0 -0 -0 -0 -0 -0 -0 -0 -0 -0 -0 -76 -51 -93 -172 -269 -244 -273 -253 -288 -221 -171 -158 -151 -150 -187 -165 -162
-0 -0 -0 -0 -0 -0 -0 -0 -0 -0 -0 -2 -0 -3 -25 -59 -115 -138 -172 -302 -331 -125 -0 -281 -253 -240 -209 -155 -162 -173 -180 -246
-0 -0 -0 -0 -4 -0 -0 -0 -0 -16 -20 -49 -19 -59 -104 -117 -157 -182 -0 -0 -240 -0 -0 -326 -327 -304 -293 -195 -196 -146 -248 -299
-3 -2 -0 -0 -0 -26 -0 -0 -0 -0 -7 -59 -76 -81 -126 -157 -0 -0 -0 -0 -85 -311 -336 -332 -324 -312 -177 -137 -146 -126 -190 -293
-2 -3 -0 -0 -0 -0 -0 -0 -0 -20 -3 -29 -118 -152 -26 -0 -0 -0 -0 -0 -267 -263 -297 -226 -283 -320 -13 -90 -150 -153 -107 -257
-0 -0 -0 -0 -0 -0 -0 -0 -0 -0 -32 -56 -60 -39 -0 -0 -0 -0 -0 -0 -258 -203 -191 -228 -203 -276 -170 -144 -215 -175 -61 -151
-0 -0 -0 -0 -0 -0 -0 -0 -0 -0 -0 -5 -3 -19 -0 -0 -0 -0 -0 -0 -71 -115 -154 -166 -143 -151 -154 -133 -196 -154 -83 -151
-0 -0 -0 -0 -0 -0 -0 -0 -0 -0 -0 -103 -2 -3 -0 -0 -0 -0 -0 -116 -17 -19 -47 -127 -203 -159 -181 -160 -109 -93 -205 -326
-0 -0 -0 -0 -1 -1 -3 -0 -0 -0 -0 -0 -37 -11 -0 -0 -0 -0 -0 -9 -30 -150 -337 -421 -434 -350 -138 -64 -97 -137 -190 -401
Wind_Speed
30 24 19 19 29 34 44 43 42 26 9 27 25 20 9 16 12 13 16 21 21 23 27 27 25 25 28 26 28 29 31 33
35 32 23 26 31 34 34 42 42 39 27 10 29 31 10 12 13 8 11 16 19 20 23 27 28 29 28 26 28 28 31 32
37 34 32 18 21 19 28 33 42 38 28 16 14 10 16 9 14 7 6 9 13 15 20 22 24 26 27 26 25 25 28 28
37 38 38 36 28 35 31 30 29 39 44 17 8 11 13 9 14 15 10 5 7 8 12 16 19 20 22 23 25 25 24 27
34 27 27 33 34 27 33 39 41 34 41 35 21 12 15 21 14 15 15 14 15 5 7 11 15 17 19 21 22 24 23 25
28 37 44 43 40 38 36 30 33 40 39 40 22 16 4 8 15 14 16 15 15 16 16 14 12 14 14 18 19 19 20 21
34 41 45 49 45 42 42 39 40 38 36 29 12 7 16 14 15 17 18 17 16 17 17 16 20 8 11 11 15 15 16 19
41 37 41 47 51 44 46 45 44 43 47 40 36 10 14 10 11 18 19 18 17 18 17 16 18 20 11 8 6 13 16 11
40 37 42 49 39 45 45 46 47 51 52 49 50 46 36 35 16 15 15 18 20 20 18 18 19 19 18 17 18 16 11 12
33 35 39 34 38 43 47 48 46 46 45 48 54 54 47 42 22 14 17 18 21 22 22 21 22 23 23 24 24 22 22 20
26 28 37 41 42 40 41 44 46 47 46 44 40 41 48 44 25 16 18 22 22 24 26 25 25 23 23 28 31 32 34 36
22 21 37 40 38 37 37 45 39 41 43 40 37 38 24 10 13 17 19 22 24 27 29 29 27 27 28 26 28 31 32 35
42 38 28 35 38 35 33 43 34 33 31 32 37 20 10 10 14 19 22 25 26 29 30 31 30 31 32 31 30 32 32 33
41 39 50 31 38 32 38 40 39 43 28 28 22 17 16 15 18 21 25 28 28 30 31 32 31 34 37 34 34 35 33 33
41 44 52 52 51 46 44 44 39 34 23 24 24 24 20 21 22 25 27 30 30 32 34 33 34 36 38 38 39 39 36 33
50 40 51 54 55 54 50 48 44 36 35 26 27 24 24 25 26 29 30 32 33 35 36 38 37 39 41 41 41 40 37 31
32 35 39 37 35 42 45 49 48 41 36 32 24 23 26 29 31 32 32 33 33 36 38 40 40 39 39 39 39 40 37 29
32 29 31 26 25 44 44 43 43 41 38 34 35 22 24 30 33 34 33 34 34 36 38 39 40 39 39 37 35 28 26 25
28 28 28 29 28 25 34 41 43 43 35 46 39 20 26 31 33 34 34 30 33 36 35 34 34 34 32 28 21 20 20 19
Wind_Direction
281 312 306 284 284 280 269 272 265 300 347 271 227 176 82 4 24 111 124 141 144 148 162 162 162 163 166 162 169 173 179 185
282 287 299 287 289 287 284 272 270 274 282 331 249 227 17 352 39 87 113 132 141 143 152 161 165 165 165 161 167 171 179 180
266 267 283 306 302 298 294 281 272 272 279 356 344 302 325 12 331 50 98 121 132 141 147 153 158 165 164 163 162 166 174 174
258 270 274 285 295 283 289 285 287 274 257 312 357 2 341 345 316 312 347 115 122 133 145 148 155 157 161 162 169 169 170 175
296 298 288 282 284 300 285 280 276 278 267 264 325 303 279 294 313 321 317 314 304 147 156 156 157 160 164 166 168 172 170 175
297 290 278 282 284 283 288 282 280 275 275 259 308 302 357 315 309 324 308 320 307 303 303 257 171 164 160 167 171 172 172 175
297 290 281 275 280 280 278 281 275 276 274 269 315 20 301 339 317 309 305 300 312 301 303 301 269 208 177 172 173 176 179 177
294 295 290 283 272 279 276 276 275 275 266 268 263 7 299 342 321 301 290 296 298 305 305 305 300 267 253 221 225 188 187 200
295 298 294 283 284 278 277 274 275 269 266 269 267 270 279 281 307 303 297 292 290 293 302 307 299 291 284 276 271 277 253 234
297 298 286 288 291 284 280 276 275 276 278 275 269 267 270 277 282 281 281 292 289 289 294 299 299 290 288 283 277 274 271 265
296 292 247 253 274 285 285 282 277 274 279 279 282 278 268 267 273 274 280 282 292 290 290 292 292 294 295 283 275 274 269 266
300 243 242 280 289 296 297 282 283 279 280 284 276 275 289 292 268 276 288 290 289 289 286 286 290 291 290 292 285 280 277 271
271 250 250 297 296 297 287 281 293 292 294 293 271 284 280 300 294 288 290 289 290 288 287 285 286 286 286 287 285 286 284 281
258 254 261 305 304 296 294 294 289 284 288 283 289 282 280 285 293 293 295 292 292 290 287 287 288 283 282 281 287 288 288 283
299 296 292 287 285 287 286 279 290 294 292 280 277 276 284 284 291 292 292 292 292 291 288 287 286 284 281 280 283 285 284 285
302 308 300 290 281 280 279 276 279 288 287 283 275 273 276 279 287 292 289 290 290 289 288 286 287 285 282 281 282 281 282 284
310 311 311 303 297 291 284 273 267 273 277 277 269 272 274 276 279 283 288 287 290 289 289 287 288 286 284 285 284 279 279 280
313 307 303 272 271 290 286 274 266 267 267 266 265 284 275 271 274 279 284 286 287 290 290 289 289 288 287 286 284 281 281 278
295 295 279 278 283 281 286 275 262 259 265 259 255 284 278 271 273 277 279 286 289 292 294 295 293 292 294 293 290 285 282 277